Terminal Aerodrome Forecast
Issued by NWS Billings, MT

Home | Current Version | Previous Version | Graphics & Text | Print | Product List | Glossary On
Versions: 1 2 3 4 5 6 7 8 9 10 11 12 13 14 15 16 17 18 19 20 21 22 23 24 25 26 27 28
000
FTUS45 KBYZ 101722
TAFMLS
TAF
KMLS 101722Z 1018/1118 30011KT P6SM SCT100
     FM102200 31011KT P6SM SCT100
     FM110500 06009KT P6SM SCT100
     FM110800 09013G22KT P6SM SCT100
     FM111400 05012G19KT P6SM VCSH SCT100=

USA.gov is the U.S. government's official web portal to all federal, state and local government web resources and services.